Regional Weather Roundup
Issued by NWS Newport/Morehead, NC

Current Version | Previous Version | Graphics & Text | Print | Product List | Glossary On
Versions: 1 2 3 4 5 6 7 8 9 10 11 12 13 14 15 16 17 18 19 20 21 22 23 24 25 26 27 28 29 30 31 32 33 34 35 36 37 38 39 40 41 42 43 44 45 46 47 48 49 50
000 ASUS42 KMHX 241722 RWRMHX WEATHER ROUNDUP FOR EASTERN NORTH CAROLINA NATIONAL WEATHER SERVICE NEWPORT/MOREHEAD CITY NC 1200 PM EST SAT JAN 24 2015 NOTE: "FAIR" INDICATES FEW OR NO CLOUDS BELOW 12,000 FEET WITH NO SIGNIFICANT WEATHER AND/OR OBSTRUCTIONS TO VISIBILITY NCZ015>017-031-032-045>047-102-103-241800- NORTH COAST CITY SKY/WX TMP DP RH WIND PRES REMARKS EDENTON CLOUDY 40 38 96 NW10G18 29.45F ELIZABETH CITY CLOUDY 40 38 93 NW16 29.43F KITTY HAWK DRIZZLE 41 41 100 NW8G16 29.40R MANTEO LGT RAIN 41 39 93 NW12G18 29.41R $$ NCZ045>047-081-094-103-104-241800- CENTRAL COAST CITY SKY/WX TMP DP RH WIND PRES REMARKS FRISCO LGT RAIN 46 46 100 NW9 29.42R SWANQUARTER NOT AVBL $$ NCZ095-097-098-100-101-241800- SOUTHERN COAST CITY SKY/WX TMP DP RH WIND PRES REMARKS BEAUFORT CLOUDY 47 45 93 NW17 29.49F CEDAR ISLAND NOT AVBL JACKSONVILLE CLOUDY 46 42 86 NW16 29.51F PINEY ISLAND N/A N/A N/A N/A MISG 29.48R WILMINGTON CLOUDY 45 44 97 W16 29.59R $$ NCZ011>013-027>030-043-044-078>080-089-090>093-098-241800- COASTAL PLAIN CITY SKY/WX TMP DP RH WIND PRES REMARKS AHOSKIE DRIZZLE 38 36 94 NW3 29.48F CLINTON CLOUDY 42 40 93 W9G16 29.60R ELIZABETHTOWN CLOUDY 43 41 93 W10G17 29.64R GOLDSBORO MIX PCPN 43 43 100 W13G24 29.55R GREENVILLE CLOUDY 41 39 93 W8 29.55S HAVELOCK LGT RAIN 46 42 86 NW12 29.50F KENANSVILLE CLOUDY 42 40 92 W15 29.58R KINSTON CLOUDY 43 41 93 W8 29.52F NEW BERN CLOUDY 46 41 82 NW9G17 29.51F RICHLANDS CLOUDY 45 39 81 W13G20 29.57R ROCKY MOUNT CLOUDY 42 38 85 W10 29.53F WASHINGTON CLOUDY 41 38 92 W6 29.49F WHITEVILLE CLOUDY 42 40 93 W9 29.63R FOG $$ AMZ130-135-150-152-154-156-158-170-250-252-270-ANZ085-086-088-633-658-670-241800- MARINE OBSERVATIONS STATION/POSITION TIME TEMP WIND PRES WAVE SWELL AIR SEA DIR/SP/G HT/PER HT/PER (UTC) (F) (DEG/KT/KT) (MB) (FT/S) (FT/S) CHESAPEAKE LIGHT 1700 38 330/ 26/ 28 995.7 64 E VA BEACH 1700 44 53 320/ 21/ 25 992.8 11/10 10/10 DUCK 1700 40 45 320/ 14/ 18 994.8 2 E DUCK 1700 44 N/A 5/10 2/11 10 NE DUCK 1700 46 N/A 7/11 3/11 OREGON INLET 1700 42 48 310/ 13/ 20 994.6 13E OREGON INLT 1700 47 N/A 11/11 7/11 HATTERAS CG 1700 47 58 290/ 17/ 19 996.5 DIAMOND BUOY 1700 54 73 310/ 16/ 21 995.7 13/11 11/11 17 S OCRACOKE NOT AVBL CAPE LOOKOUT 1700 47 290/ 17/ 20 998.4 BEAUFORT LAB 1700 46 52 310/ 6/ 14 997.2 27 SE WRIGHTSVLE NOT AVBL 5 SE WRIGHTSVLE 1700 48 51 280/ 17/ 23 1001.0 225 S CAPE HAT 1643 75 73 220/ 35/ 43 1001.7 14/ 8 2/16 41 SE CHARLESTON 1700 56 70 270/ 29/ 33 1004.1 12/ 9 5/12 $$

USA.gov is the U.S. government's official web portal to all federal, state and local government web resources and services.